Regional Weather Roundup
Issued by NWS Little Rock, AR

Home | Current Version | Previous Version | Text Only | Print | Product List | Glossary Off
Versions: 1 2 3 4 5 6 7 8 9 10 11 12 13 14 15 16 17 18 19 20 21 22 23 24 25

051
ASUS44 KLZK 211305
RWRLZK

WEATHER ROUNDUP FOR ARKANSAS
NATIONAL WEATHER SERVICE LITTLE ROCK AR
800 AM CDT THU MAY 21 2015

NOTE: "FAIR" INDICATES FEW OR NO CLOUDS BELOW 12,000 FEET WITH NO
SIGNIFICANT WEATHER AND/OR OBSTRUCTIONS TO VISIBILITY.

ARZ001-003-010-029-211400-
NORTHWEST ARKANSAS

CITY           SKY/WX    TMP DP  RH WIND       PRES   REMARKS
FAYETTEVILLE   MOSUNNY   50  45  83 MISG      30.23R
FORT SMITH     MOSUNNY   58  45  62 NE12      30.21R
HARRISON       CLOUDY    49  44  83 NW9       30.23R
BENTONVILLE    MOSUNNY   48  41  76 NE7       30.24R
ROGERS         PTSUNNY   48  44  86 N9        30.25R
SILOAM SPGS    CLOUDY    48  39  71 NE9       30.25R
HIGHFILL       CLOUDY    51  45  79 N10       30.23R
SPRINGDALE     PTSUNNY   50  45  81 N13       30.25R
$$

ARZ004-005-016-211400-
NORTH CENTRAL ARKANSAS

CITY           SKY/WX    TMP DP  RH WIND       PRES   REMARKS
BATESVILLE     CLOUDY    52  46  82 N3        30.21R
FLIPPIN        CLOUDY    52  43  71 N7        30.21R
MTN HOME       CLOUDY    50  45  83 VRB5      30.22R
$$

ARZ040-041-211400-
WEST CENTRAL ARKANSAS

CITY           SKY/WX    TMP DP  RH WIND       PRES   REMARKS
MENA           CLOUDY    59  54  82 N6        30.18R
MOUNT IDA      LGT RAIN  58  52  80 CALM      30.15R
$$

ARZ009-017-025-026-028-211400-
NORTHEAST ARKANSAS

CITY           SKY/WX    TMP DP  RH WIND       PRES   REMARKS
JONESBORO      CLOUDY    50  46  86 N10       30.19R
NEWPORT        CLOUDY    53  48  83 N10       30.22R
WALNUT RIDGE   CLOUDY    52  43  71 N13G18    30.20R
BLYTHEVILLE    CLOUDY    50  46  86 N16       30.19R
$$

ARZ022-023-033-042-044-211400-
CENTRAL ARKANSAS

CITY           SKY/WX    TMP DP  RH WIND       PRES   REMARKS
LITTLE ROCK    CLOUDY    58  47  66 N13G23    30.17R
N LITTLE ROCK    N/A     56  50  81 N13G21    30.17R
JACKSONVILLE   PTSUNNY   61  48  63 N14       30.14F
SEARCY         PTSUNNY   55  48  77 N12       30.21R
HOT SPRINGS    CLOUDY    57  50  77 NE10G20   30.17R
RUSSELLVILLE   CLOUDY    56  47  71 N8        30.20R
CLINTON        CLOUDY    54  46  76 N5        30.23R
$$

ARZ036-211400-
EAST ARKANSAS

CITY           SKY/WX    TMP DP  RH WIND       PRES   REMARKS
WEST MEMPHIS   CLOUDY    52  49  89 N14       30.18R
$$

ARZ050-053-066-070-073-211400-
SOUTHWEST ARKANSAS

CITY           SKY/WX    TMP DP  RH WIND       PRES   REMARKS
ARKADELPHIA    CLOUDY    62  56  81 NE12      30.17R
CAMDEN         LGT RAIN  61  57  88 N6        30.15R
TEXARKANA      RAIN      60  59  96 N6        30.16R FOG
EL DORADO      LGT RAIN  62  59  90 N8        30.13R
DE QUEEN       CLOUDY    59  55  87 CALM      30.15R
$$

ARZ056-057-069-211400-
SOUTHEAST ARKANSAS

CITY           SKY/WX    TMP DP  RH WIND       PRES   REMARKS
PINE BLUFF     CLOUDY    58  54  86 N17G23    30.16R
STUTTGART      CLOUDY    57  50  77 N17       30.17R
MONTICELLO     CLOUDY    63  60  90 NE8       30.12R

$$





USA.gov is the U.S. government's official web portal to all federal, state and local government web resources and services.